Regional Weather Roundup
Issued by NWS Albany, NY

Home | Current Version | Previous Version | Text Only | Print | Product List | Glossary On
Versions: 1 2 3 4 5 6 7 8 9 10 11 12 13 14 15 16 17 18 19 20 21 22 23 24 25 26 27 28 29 30 31 32 33 34 35 36 37 38 39 40 41 42 43 44 45 46 47 48 49 50
000
ASUS41 KALY 030110
RWRALY

NEW YORK STATE HOURLY WEATHER ROUNDUP
NATIONAL WEATHER SERVICE ALBANY NY
900 PM EDT THU JUL 02 2015

NOTE: "FAIR" INDICATES FEW OR NO CLOUDS BELOW 12,000 FEET WITH NO
SIGNIFICANT WEATHER AND/OR NO OBSTRUCTIONS TO VISIBILITY.

NYZ032-033-038>043-046>054-057>066-NYZ062>081-030200-
EAST


CITY           SKY/WX    TMP DP  RH WIND       PRES   REMARKS
ALBANY         PTCLDY    67  49  52 W8        29.90R
GLENS FALLS    CLEAR     66  50  56 NW6       29.89R
POUGHKEEPSIE   CLOUDY    71  63  75 CALM      29.86S
NEWBURGH       PTCLDY    70  64  83 CALM      29.89R
MONTGOMERY     CLOUDY    68  63  84 CALM      29.87S
WHITE PLAINS   CLOUDY    69  62  78 CALM      29.87S
ISLIP          CLOUDY    70  62  76 CALM      29.85R
NEW YORK CITY  CLOUDY    74  59  59 S5        29.85F
CENTRAL PARK   CLOUDY    74  60  61 CALM      29.89S
$$

NYZ005>009-017-018-044>046-055-056-030200-
CENTRAL


CITY           SKY/WX    TMP DP  RH WIND       PRES   REMARKS
FULTON         CLEAR     57  48  72 CALM      29.96R
SYRACUSE       PTCLDY    62  46  55 NW6       29.95R
ROME           CLEAR     61  46  57 NW6       29.95R
ELMIRA         MOCLDY    64  53  67 N7        29.95R
BINGHAMTON     PTCLDY    61  52  72 N10       29.95S
MONTICELLO     CLOUDY    64  55  72 NW3       29.93S
$$

NYZ026>034-041>043-030200-
NORTH


CITY           SKY/WX    TMP DP  RH WIND       PRES   REMARKS
WATERTOWN      CLEAR     57  48  72 CALM      29.95S
FORT DRUM      NOT AVBL
MASSENA        CLEAR     60  50  69 SW7       29.93R
SARANAC LAKE   CLEAR     53  46  77 CALM      29.95R
PLATTSBURGH    CLEAR     61  47  59 CALM      29.91R
$$

NYZ001>004-010>016-019>021-030200-
WEST


CITY           SKY/WX    TMP DP  RH WIND       PRES   REMARKS
NIAGARA FALLS  PTCLDY    64  47  53 N5        29.96S
BUFFALO        PTCLDY    65  45  48 NE5       29.96S
DUNKIRK        CLEAR     64  52  64 CALM      29.97R
JAMESTOWN      CLEAR     59  48  67 N6        29.99S
WELLSVILLE     MOCLDY    62  52  69 N5        30.00R
ROCHESTER      PTCLDY    64  48  56 NW5       29.96S
PENN YAN       CLEAR     60  46  59 CALM      29.97R
$$

             KEY
       WCI = WIND CHILL INDEX
       VSB = VISIBILITY
       HX  = HEAT INDEX
$$


USA.gov is the U.S. government's official web portal to all federal, state and local government web resources and services.